Theta_e
356 362 366 363 364 366 365 364 362 362 362 362 363 364 364 364 365 364 364 363 364 364 363 361 360 360 359 356 356 359 361 360 361 359 357 357 357 358 358 356 356 351 354
357 359 365 363 365 365 364 363 362 362 363 362 360 361 362 363 362 363 363 363 363 361 360 359 359 358 358 357 356 359 360 361 360 359 357 356 356 356 356 354 352 349 352
353 356 360 364 360 361 366 364 362 362 362 361 361 360 360 361 361 361 361 361 360 357 358 358 358 358 358 357 356 358 360 361 360 360 358 348 350 357 357 353 351 352 353
352 353 353 363 363 362 363 364 363 362 361 361 361 361 360 361 360 360 360 360 358 357 357 358 357 357 357 357 356 359 359 359 358 359 350 347 350 359 358 357 352 352 352
351 353 356 362 364 364 364 363 363 362 362 360 360 360 360 360 360 360 360 360 358 355 355 356 358 360 359 359 359 359 359 358 358 355 342 339 340 356 360 360 356 353 353
351 353 356 361 362 363 362 361 362 362 362 361 360 360 360 359 360 359 360 361 360 356 355 356 359 359 359 360 359 358 358 358 357 343 339 338 336 346 361 361 359 357 356
346 347 354 359 359 360 361 361 361 363 362 362 361 360 360 361 360 359 359 359 359 359 358 358 360 360 358 358 358 357 357 356 346 338 337 335 335 347 355 359 360 358 358
334 333 336 346 353 357 358 359 360 360 360 360 360 360 358 358 358 358 358 358 359 359 360 361 361 359 358 357 358 357 356 354 348 340 337 335 338 344 351 360 358 359 359
331 329 329 331 341 350 356 355 356 358 355 353 355 356 357 357 356 358 358 358 358 359 360 360 361 360 359 358 357 357 357 354 344 339 339 335 342 346 349 355 359 358 358
334 334 333 335 337 337 346 354 351 350 347 344 343 343 346 353 355 356 357 357 358 357 358 359 359 359 357 358 357 357 357 355 346 340 339 336 344 346 350 353 360 358 356
337 337 334 339 337 333 330 337 337 344 344 343 341 339 337 340 340 342 348 354 356 357 356 356 356 357 357 356 356 357 356 348 342 341 341 346 348 350 352 354 354 359 357
330 332 332 335 333 335 332 329 333 338 337 337 334 330 329 330 337 341 343 347 351 354 355 355 354 355 356 349 350 354 350 348 343 344 344 349 351 352 353 355 355 357 359
325 329 330 332 336 337 335 334 335 336 336 332 333 331 329 335 335 336 337 340 338 341 335 335 334 337 343 346 347 346 346 347 346 345 346 351 352 352 354 355 355 354 358
329 329 331 335 336 335 334 332 332 330 332 332 333 332 328 331 333 335 338 338 337 334 330 337 339 339 339 341 341 340 342 342 343 344 344 349 351 352 353 355 355 355 355
323 320 321 326 330 335 332 335 330 325 326 328 326 324 325 325 326 331 332 335 336 336 336 336 337 336 336 337 339 341 342 340 340 341 341 347 349 351 353 354 356 356 356
320 319 320 320 320 326 327 320 319 318 320 323 321 322 323 322 321 323 324 325 326 331 333 332 335 334 335 336 336 338 339 340 338 336 334 336 347 349 351 354 355 356 356
319 319 319 319 319 316 314 315 317 317 318 319 320 320 321 320 319 320 319 320 319 322 327 334 332 333 335 336 334 336 336 337 336 336 337 336 336 343 344 351 354 354 354
320 319 320 322 318 317 315 315 318 317 316 317 318 316 316 315 317 313 315 315 315 317 320 323 328 330 331 331 330 330 333 334 333 333 335 336 336 336 339 345 347 350 353
322 320 319 318 317 316 315 315 316 316 316 316 314 311 312 312 313 310 310 310 311 313 314 317 320 325 326 328 329 331 332 331 332 334 333 335 334 335 333 337 343 347 350
321 320 321 321 318 317 317 315 316 315 315 314 311 309 309 309 310 308 309 310 311 310 311 312 315 320 321 322 326 328 329 331 332 332 333 335 335 333 333 336 338 341 348
320 321 319 317 315 316 315 314 313 311 310 310 310 310 308 307 308 307 308 310 311 310 311 313 314 315 317 319 318 319 320 324 328 330 330 330 332 333 333 334 335 335 337
320 316 315 315 314 315 314 312 312 311 309 308 307 308 307 307 306 306 308 308 309 309 311 312 313 313 318 317 314 313 313 314 318 322 324 326 325 328 331 333 332 332 333
314 314 314 314 313 312 313 311 309 308 306 304 305 305 305 306 306 305 305 307 307 309 308 309 312 313 312 315 315 313 309 308 310 315 319 322 321 322 324 327 329 331 331
313 315 314 313 312 311 310 307 304 303 300 301 301 303 303 305 304 305 303 307 307 306 306 308 310 310 312 313 317 317 317 315 312 308 313 316 320 321 318 320 322 325 328
313 313 313 311 310 308 306 304 303 301 302 303 302 301 301 301 303 303 302 304 305 304 305 306 307 306 307 308 311 314 316 317 317 314 309 310 314 318 317 319 323 328 330
310 310 309 308 307 307 306 304 300 299 299 300 300 299 300 300 300 302 303 301 303 303 302 304 305 306 306 306 306 308 307 308 310 311 311 313 312 316 317 318 318 319 324
Wind_Speed
2 2 6 3 6 8 11 15 15 16 15 13 14 15 14 13 13 12 12 11 12 13 12 12 12 10 8 6 6 7 7 8 11 15 14 14 15 15 15 15 14 8 13
4 6 8 5 6 8 10 13 13 15 16 15 13 12 12 11 11 11 10 9 9 11 10 11 11 10 8 7 7 7 8 8 10 12 15 13 13 13 13 14 14 11 15
5 5 4 7 6 6 10 11 11 11 12 14 14 12 11 12 12 11 11 10 10 11 12 13 13 12 9 8 8 9 9 10 11 12 14 5 6 13 12 11 12 14 15
5 3 2 6 5 7 9 10 9 9 11 13 13 13 13 12 12 13 12 11 12 13 13 13 13 12 10 9 9 10 10 10 11 13 6 5 9 14 12 12 11 12 13
7 4 2 6 5 6 7 9 10 9 8 8 10 11 11 11 12 13 13 13 13 13 13 13 12 11 11 11 10 11 12 12 13 11 6 6 5 12 14 16 15 15 14
7 6 5 6 4 3 4 3 5 9 11 11 11 11 10 10 9 9 11 11 11 12 12 12 11 11 11 11 11 11 11 12 14 7 7 8 7 8 17 16 19 17 14
7 5 5 7 6 7 8 6 4 2 2 3 3 3 6 7 8 8 9 9 10 11 12 12 12 12 12 11 11 11 11 12 7 6 6 6 7 13 15 19 19 19 18
8 7 6 9 10 9 8 9 6 5 4 6 6 5 7 8 8 9 9 10 11 12 11 12 12 11 11 10 11 10 10 11 8 6 7 6 10 12 12 13 20 20 20
7 6 6 4 5 3 4 6 10 12 16 16 15 12 10 11 10 9 10 12 12 12 12 12 12 12 11 11 11 11 11 13 7 4 6 5 11 12 12 11 17 20 20
5 4 5 5 5 7 6 12 10 11 10 10 13 16 16 16 12 11 11 11 14 14 14 14 15 15 14 14 13 13 13 16 8 6 5 6 13 13 13 12 13 19 21
5 4 4 5 6 6 4 7 10 10 10 11 12 15 11 4 5 9 10 14 16 15 15 15 15 15 14 14 15 15 16 6 5 5 5 14 17 19 17 15 14 17 21
5 2 5 8 6 6 5 3 3 7 4 7 6 6 4 6 5 9 9 12 15 17 16 16 17 17 15 7 6 14 7 8 5 7 6 19 19 21 21 17 16 17 20
6 8 7 5 6 6 5 4 5 6 5 3 6 7 7 6 6 5 4 5 3 5 3 3 6 3 6 6 7 6 8 8 6 7 11 19 21 24 22 19 18 20 21
7 8 9 9 8 10 8 8 8 8 8 7 8 7 4 4 6 6 4 4 3 2 2 3 2 4 5 7 8 9 9 8 6 6 10 21 21 23 23 21 21 21 21
8 8 10 10 9 7 8 5 6 5 5 5 6 7 6 6 7 8 8 6 4 4 4 3 3 5 4 3 4 6 10 10 10 7 6 19 20 22 23 22 21 22 22
5 5 6 8 8 6 3 5 4 4 5 4 5 5 7 5 6 6 7 7 8 8 6 5 4 5 5 2 7 7 6 6 8 7 6 6 17 19 21 21 21 21 21
5 4 7 6 5 2 1 3 3 4 4 4 5 9 10 8 7 7 5 6 6 8 9 7 5 4 3 2 9 8 7 8 6 8 8 7 7 13 13 14 17 18 17
5 8 7 5 6 7 7 6 6 7 6 6 7 7 11 11 11 8 6 7 8 6 6 6 8 4 4 4 5 6 6 6 9 11 9 8 9 5 9 14 14 16 15
6 7 6 6 6 7 6 5 5 6 7 6 6 7 9 10 11 8 7 7 9 8 6 5 6 6 4 4 5 6 6 6 8 9 10 9 9 7 4 11 17 18 17
7 7 7 6 8 7 5 5 4 5 6 6 5 6 9 7 10 7 7 9 7 8 8 7 8 6 5 6 5 7 6 7 7 7 8 5 6 6 6 7 6 8 16
7 9 8 9 8 6 4 4 4 4 5 4 5 7 9 9 10 7 7 9 9 8 8 8 8 9 5 2 3 3 4 7 7 7 6 6 7 6 6 7 6 5 6
8 8 9 8 8 5 4 4 3 3 3 2 4 6 6 7 9 10 10 8 9 9 9 9 9 7 4 2 3 1 4 5 2 3 3 3 4 4 4 5 5 5 5
9 7 8 7 7 7 8 4 5 4 3 4 5 5 6 6 7 10 11 9 10 8 7 9 8 10 6 5 5 3 3 4 3 2 2 2 3 3 4 3 4 4 5
7 6 6 8 8 8 8 6 6 4 4 3 3 4 6 7 6 8 10 10 9 8 8 8 8 8 7 5 4 2 4 2 2 4 3 2 3 4 5 4 4 5 5
6 6 7 7 7 7 7 6 5 5 4 5 6 8 8 6 6 9 9 10 9 8 9 10 10 10 7 5 4 3 3 1 3 3 3 4 2 4 5 5 5 3 3
6 6 6 6 5 6 6 6 6 6 6 6 8 7 6 7 6 9 8 8 8 9 10 8 9 10 9 6 5 4 3 2 2 2 2 2 1 2 2 4 5 4 4
Wind_Direction
14 60 93 108 85 62 79 86 90 92 89 73 72 78 84 96 107 124 137 148 151 146 149 153 155 151 142 110 107 97 107 119 130 141 142 138 142 147 150 153 150 145 141
58 9 29 39 74 91 86 85 90 99 106 108 101 92 95 96 106 108 113 130 138 143 152 156 159 158 151 141 145 151 145 143 147 149 150 150 153 156 159 159 157 160 154
39 18 40 40 45 75 89 84 86 94 103 113 119 124 123 122 122 122 124 128 138 151 159 164 167 168 165 161 167 178 172 169 163 161 160 152 156 170 173 171 168 166 159
10 353 77 91 97 118 119 118 124 130 135 137 139 141 142 142 144 145 145 148 153 160 166 171 173 173 176 177 176 183 181 179 175 169 159 162 173 180 185 186 185 179 171
101 328 323 97 84 108 134 147 150 142 138 146 150 152 154 157 160 163 162 163 167 171 176 179 182 183 185 183 181 181 181 183 181 176 172 183 198 184 191 186 188 190 188
57 19 2 37 65 91 115 134 158 155 165 173 178 175 173 175 180 181 178 176 177 181 184 188 193 195 193 190 190 190 188 187 188 175 179 193 195 214 198 196 188 191 194
62 22 2 23 42 44 30 21 9 52 14 356 321 237 208 200 197 201 202 201 198 199 200 200 200 203 203 201 201 202 202 199 188 195 203 201 202 209 212 215 196 194 188
51 25 18 21 35 27 32 29 26 34 25 346 337 306 277 257 238 228 225 219 218 221 219 216 213 213 214 217 217 217 219 222 221 208 215 213 212 224 234 213 203 197 191
86 37 339 331 14 97 112 50 31 32 35 26 12 356 330 306 287 268 259 246 237 231 232 232 228 224 222 224 226 226 223 230 226 231 241 233 239 227 236 237 211 207 199
46 35 15 352 308 348 34 71 53 46 42 32 13 353 340 324 315 303 276 264 257 248 239 236 238 235 230 227 229 230 232 236 236 219 237 246 252 244 236 230 222 213 210
35 19 318 326 3 16 5 45 14 28 6 5 358 341 334 343 332 315 293 284 275 264 260 254 249 247 247 245 240 237 239 237 222 223 229 242 248 254 248 235 232 224 214
35 44 17 20 344 351 346 87 40 26 353 357 347 343 336 303 311 320 300 300 287 268 253 253 250 244 244 239 240 244 234 235 218 236 235 241 243 249 254 247 235 229 219
348 12 16 347 336 348 14 24 16 8 354 356 4 345 334 318 304 304 290 265 298 305 1 301 293 298 245 223 225 224 225 227 223 234 241 245 243 247 249 248 242 235 226
13 351 353 357 4 9 17 15 2 8 8 12 6 346 322 307 313 301 300 302 307 242 216 240 251 249 251 235 236 234 230 231 228 232 241 248 248 248 250 247 239 237 231
50 33 29 31 9 3 14 8 17 10 37 59 38 20 18 9 358 352 349 335 327 311 297 263 250 236 226 274 243 256 248 241 234 234 237 243 247 249 253 249 242 236 232
103 87 73 53 53 51 13 7 8 10 4 33 24 10 15 22 8 6 358 355 355 342 303 296 274 271 297 290 281 252 249 242 242 230 234 234 245 251 254 253 252 242 236
41 43 83 71 64 83 53 23 37 20 28 35 33 20 6 11 3 357 349 347 346 336 331 302 275 274 267 270 273 261 249 246 233 234 235 237 242 253 262 273 263 256 247
112 76 53 55 31 14 23 18 19 19 27 29 28 19 2 2 5 357 346 343 334 331 326 332 321 286 267 237 238 250 247 238 239 244 245 225 242 231 260 265 275 279 275
102 97 77 52 35 9 14 27 37 35 30 24 24 15 3 359 359 359 349 339 336 328 326 325 313 303 287 267 254 249 237 236 236 241 237 229 221 230 224 248 258 256 261
81 45 49 42 27 1 5 1 15 41 29 26 17 14 1 353 356 351 347 348 331 335 331 329 316 304 288 278 276 275 260 244 237 240 243 236 234 213 217 218 236 246 244
46 31 56 44 15 17 356 353 353 11 15 5 355 354 358 355 353 346 335 340 338 331 321 321 315 311 306 291 296 294 267 252 237 234 233 237 238 231 225 232 222 231 243
64 58 47 39 26 15 14 357 9 353 4 344 340 340 341 347 349 350 343 340 335 327 328 329 319 309 279 262 271 273 305 323 298 242 231 243 261 247 244 251 245 244 242
61 58 58 43 27 21 19 4 354 354 348 350 354 350 333 339 351 345 339 342 336 336 330 328 326 312 286 289 264 234 283 248 330 335 357 29 5 8 351 339 313 279 254
68 67 61 45 31 26 12 13 12 2 336 309 305 322 335 342 341 354 341 340 340 337 340 335 339 335 332 288 287 268 236 230 288 318 340 35 54 29 354 348 339 326 295
81 67 58 54 41 25 24 17 6 351 323 315 320 336 328 344 341 351 352 342 342 347 343 340 348 356 347 336 334 329 330 304 257 256 294 316 18 21 7 347 334 322 270
74 66 63 71 46 28 23 17 15 351 331 336 339 341 325 359 346 352 354 345 351 353 346 351 348 354 352 352 348 23 19 329 3 334 315 325 306 40 1 358 353 357 344